[[{"header":{"parameterUnit":"m.s-1","parameterCategory":1,"la1":30.2991,"la2":30.254,"lo1":-89.0895,"lo2":-89.0444,"dy":0.0017,"dx":0.0017,"nx":28,"ny":28,"refTime":"2026-03-03T09:00:00:Z","depth":0,"parameterNumber":2,"parameterNumberName":"U-component_of_WINDS"},"data":[0,0,0,0,0,0,0,0,0,0,0,0,0,0,0,0,0,0,0,0,0,0,0,0,0,0,0,0,0,0,0,0,0,0,0,0,0,0,0,0,0,0,0,0,0,0,0,0,0,0,0,0,0,0,0,0,0,0,-3.1119,-3.112,0,-3.1235,-3.1236,-3.1238,-3.1259,-3.1258,-3.1257,-3.1256,-3.1373,-3.1377,-3.1381,0,0,0,0,0,0,0,0,0,0,0,0,0,-3.0916,-3.092,-3.1119,-3.1121,-3.1122,-3.1235,-3.1236,-3.1238,-3.1259,-3.1258,-3.1257,-3.1256,-3.1372,-3.1377,-3.1381,0,0,0,0,0,0,0,0,0,0,0,0,0,-3.1015,-3.0921,-3.1119,-3.1146,-3.115,-3.1234,-3.1236,-3.1238,-3.1259,-3.1258,-3.1256,-3.1255,-3.137,-3.1376,-3.1382,-3.1447,0,0,-3.14,-3.1403,0,0,0,0,0,0,0,0,-3.101,-3.1023,-3.1141,-3.1144,-3.1149,-3.1231,-3.1208,-3.1308,-3.126,-3.1218,-3.1256,-3.1255,-3.1327,-3.1336,-3.1361,-3.1452,-3.1458,-3.1401,-3.1404,-3.1407,-3.1409,0,0,0,0,0,0,0,-3.1003,-3.1018,-3.1165,-3.1142,-3.1147,-3.1153,-3.1165,-3.1227,-3.1279,-3.1221,-3.1223,-3.1237,-3.1329,-3.1355,-3.1364,-3.1459,-3.1401,-3.1406,-3.141,-3.1412,-3.1611,-3.1613,0,0,0,0,0,0,-3.0991,-3.1012,-3.1161,-3.1168,-3.1074,-3.1157,-3.1172,-3.1206,-3.1278,-3.1288,-3.1238,-3.1237,-3.1346,-3.1357,-3.1368,-3.1449,-3.1407,-3.1413,-3.1416,-3.161,-3.1612,-3.1613,0,0,0,0,0,0,-3.0987,-3.1004,-3.1157,-3.1091,-3.1111,-3.1163,-3.1201,-3.1209,-3.1235,-3.1291,-3.13,-3.1255,-3.1345,-3.136,-3.1428,-3.1454,-3.1415,-3.1421,-3.1608,-3.161,-3.1613,-3.1612,0,0,0,0,0,0,-3.0981,-3.1003,-3.1028,-3.1091,-3.1114,-3.1214,-3.1203,-3.1212,-3.1246,-3.1246,-3.1309,-3.1318,-3.1345,-3.1419,-3.1434,-3.1461,-3.1425,-3.1605,-3.1609,-3.1612,-3.161,-3.1614,-3.1618,0,0,0,0,0,-3.0974,-3.1022,-3.1029,-3.1047,-3.1146,-3.1215,-3.1228,-3.1258,-3.1248,-3.1274,-3.1309,-3.1316,-3.1449,-3.1425,-3.1442,-3.1472,-3.1604,-3.1608,-3.1611,-3.1608,-3.1613,-3.1618,0,0,0,0,0,0,-3.0959,-3.1031,-3.1039,-3.111,-3.1156,-3.1219,-3.1252,-3.1263,-3.1313,-3.1311,-3.1346,-3.136,-3.1426,-3.1456,-3.1429,-3.154,-3.1526,-3.1533,-3.1517,-3.1523,-3.1527,-3.1517,-3.143,0,0,0,0,0,-3.0964,-3.1014,-3.1075,-3.1131,-3.1154,-3.1199,-3.123,-3.125,-3.1299,-3.1319,-3.1359,-3.1407,-3.1459,-3.1493,-3.1544,-3.1615,-3.1629,-3.1644,-3.1648,-3.1651,-3.1657,-3.1697,-3.1704,-3.1626,-3.1626,-3.1626,0,0,-3.0975,-3.1021,-3.105,-3.1129,-3.1168,-3.1219,-3.1215,-3.1269,-3.1308,-3.1327,-3.1393,-3.1425,-3.1481,-3.155,-3.1583,-3.1578,-3.1682,-3.1656,-3.1658,-3.1662,-3.1702,-3.1709,-3.1716,-3.1629,-3.1628,-3.1628,0,0,-3.102,-3.106,-3.1112,-3.1151,-3.121,-3.124,-3.1252,-3.1314,-3.1336,-3.1404,-3.142,-3.1466,-3.1556,-3.1595,-3.1626,-3.169,-3.1698,-3.1706,-3.1726,-3.1765,-3.1771,-3.1776,-3.1799,-3.1806,-3.1711,-3.1711,-3.1711,0,-3.1026,-3.1104,-3.1137,-3.1191,-3.1225,-3.1247,-3.13,-3.1336,-3.1408,-3.1432,-3.1425,-3.1539,-3.1578,-3.1657,-3.1673,-3.1698,-3.1714,-3.1697,-3.1767,-3.1773,-3.1779,-3.1801,-3.1809,-3.1712,-3.1712,-3.1712,-3.1712,0,-3.1108,-3.1161,-3.1196,-3.1267,-3.1306,-3.1358,-3.14,-3.1436,-3.1453,-3.1483,-3.1553,-3.1601,-3.1663,-3.1683,-3.17,-3.1766,-3.1761,-3.176,-3.1747,-3.1786,-3.1807,-3.1816,-3.1712,-3.1712,-3.1712,-3.1712,0,0,-3.1144,-3.1234,-3.1246,-3.1279,-3.1347,-3.1389,-3.1444,-3.1505,-3.1535,-3.1585,-3.1631,-3.1708,-3.1709,-3.1745,-3.1767,-3.1801,-3.1848,-3.1797,-3.1799,-3.1804,-3.1924,-3.1922,-3.1931,-3.1855,-3.1857,-3.1858,-3.1919,0,-3.1197,-3.1295,-3.1327,-3.1409,-3.1459,-3.1482,-3.153,-3.1577,-3.1608,-3.1655,-3.169,-3.1743,-3.1741,-3.1763,-3.1798,-3.1835,-3.1872,-3.1831,-3.1898,-3.19,-3.1882,-3.1942,-3.1941,-3.1995,-3.1927,-3.1929,-3.193,0,-3.127,-3.1323,-3.1409,-3.1472,-3.1495,-3.1537,-3.1597,-3.1642,-3.1696,-3.1717,-3.1758,-3.1778,-3.1836,-3.1821,-3.1902,-3.1873,-3.1903,-3.1926,-3.1929,-3.1935,-3.1916,-3.1949,-3.2014,-3.2021,-3.1943,-3.1942,-3.1941,0,-3.1287,-3.138,-3.1444,-3.1471,-3.1546,-3.1575,-3.1608,-3.1661,-3.1697,-3.1749,-3.1773,-3.1831,-3.1863,-3.1908,-3.1943,-3.1929,-3.2021,-3.2008,-3.2039,-3.2038,-3.2055,-3.2053,-3.2124,-3.2077,-3.2077,-3.2077,-3.2077,0,-3.1342,-3.1393,-3.1452,-3.1491,-3.1551,-3.1589,-3.1646,-3.168,-3.1728,-3.1774,-3.1798,-3.1841,-3.1886,-3.1935,-3.1963,-3.2026,-3.204,-3.2058,-3.2065,-3.2055,-3.2053,-3.2074,-3.207,-3.2079,-3.2079,-3.2078,-3.2078,0,-3.1369,-3.1411,-3.1482,-3.1548,-3.1566,-3.1607,-3.1664,-3.1703,-3.1736,-3.1795,-3.1811,-3.1863,-3.1922,-3.1963,-3.2038,-3.2057,-3.2125,-3.2132,-3.2107,-3.211,-3.2138,-3.2134,-3.2223,-3.2237,-3.2181,-3.2182,-3.2182,0,-3.14,-3.1441,-3.1512,-3.1545,-3.1578,-3.1631,-3.1668,-3.1708,-3.1745,-3.1812,-3.1843,-3.1904,-3.1955,-3.2049,-3.2093,-3.2152,-3.2159,-3.2186,-3.2168,-3.2157,-3.2158,-3.2155,-3.2159,-3.2188,-3.2189,-3.2189,-3.2189,0,-3.1451,-3.147,-3.1522,-3.1582,-3.1625,-3.1675,-3.1724,-3.175,-3.1798,-3.1839,-3.19,-3.194,-3.2018,-3.2079,-3.2142,-3.2176,-3.2191,-3.2196,-3.2206,-3.2195,-3.2179,-3.2187,-3.2113,-3.2193,-3.2192,-3.2192,-3.2192,-3.2192,-3.148,-3.1518,-3.1574,-3.1632,-3.1674,-3.172,-3.176,-3.1799,-3.1851,-3.1918,-3.1939,-3.2003,-3.2058,-3.2145,-3.218,-3.2231,-3.2228,-3.2243,-3.2246,-3.2249,-3.2248,-3.2172,-3.2243,-3.2243,-3.2243,-3.2243,-3.2243,0,-3.1531,-3.1569,-3.1622,-3.1691,-3.1737,-3.1749,-3.1805,-3.1842,-3.1898,-3.1948,-3.1999,-3.207,-3.2129,-3.218,-3.2241,-3.2272,-3.2281,-3.2287,-3.2284,-3.2292,-3.2248,-3.2232,-3.2279,-3.2279,-3.2279,-3.2279,-3.2279,-3.2279,-3.1563,-3.1627,-3.1653,-3.1739,-3.1777,-3.184,-3.1871,-3.1914,-3.1954,-3.2033,-3.2083,-3.2116,-3.2167,-3.2233,-3.2288,-3.2301,-3.2322,-3.2327,-3.2341,-3.2299,-3.2295,-3.229,-3.2276,-3.2331,-3.2331,-3.2381,-3.2382,-3.2382]},{"header":{"parameterUnit":"m.s-1","parameterCategory":1,"la1":30.2991,"la2":30.254,"lo1":-89.0895,"lo2":-89.0444,"dy":0.0017,"dx":0.0017,"nx":28,"ny":28,"refTime":"2026-03-03T09:00:00:Z","depth":0,"parameterNumber":3,"parameterNumberName":"V-component_of_WINDS"},"data":[0,0,0,0,0,0,0,0,0,0,0,0,0,0,0,0,0,0,0,0,0,0,0,0,0,0,0,0,0,0,0,0,0,0,0,0,0,0,0,0,0,0,0,0,0,0,0,0,0,0,0,0,0,0,0,0,0,0,1.5934,1.5934,0,1.5978,1.5979,1.5979,1.6006,1.6006,1.6006,1.6007,1.6052,1.6053,1.6054,0,0,0,0,0,0,0,0,0,0,0,0,0,1.5874,1.5875,1.5934,1.5934,1.5935,1.5978,1.5979,1.5979,1.6006,1.6006,1.6006,1.6007,1.6052,1.6053,1.6054,0,0,0,0,0,0,0,0,0,0,0,0,0,1.5907,1.5875,1.5933,1.5953,1.5956,1.5978,1.5979,1.5979,1.6006,1.6006,1.6007,1.6007,1.6051,1.6053,1.6055,1.6061,0,0,1.606,1.606,0,0,0,0,0,0,0,0,1.5905,1.5909,1.595,1.5952,1.5955,1.5987,1.5974,1.6007,1.6006,1.5987,1.6007,1.6007,1.603,1.6034,1.6042,1.6063,1.6065,1.606,1.6061,1.6062,1.6062,0,0,0,0,0,0,0,1.5903,1.5907,1.5951,1.595,1.5953,1.5961,1.5966,1.5981,1.6007,1.5989,1.5991,1.5996,1.6032,1.604,1.6043,1.6066,1.606,1.6061,1.6062,1.6063,1.6097,1.6097,0,0,0,0,0,0,1.5897,1.5905,1.595,1.5953,1.593,1.5962,1.5967,1.5976,1.6007,1.6012,1.5995,1.5997,1.6037,1.6041,1.6045,1.6056,1.6062,1.6063,1.6064,1.6097,1.6097,1.6097,0,0,0,0,0,0,1.5896,1.5901,1.5948,1.593,1.5936,1.5962,1.5972,1.5977,1.5985,1.6012,1.6017,1.5999,1.6037,1.6042,1.6057,1.6057,1.6064,1.6065,1.6097,1.6097,1.6097,1.6076,0,0,0,0,0,0,1.5894,1.59,1.5902,1.5929,1.5937,1.5959,1.5972,1.5978,1.5988,1.599,1.6017,1.6021,1.6038,1.6055,1.6059,1.606,1.6067,1.6097,1.6097,1.6097,1.6077,1.6075,1.6074,0,0,0,0,0,1.5892,1.5894,1.5902,1.5907,1.594,1.5959,1.5963,1.5983,1.5988,1.5991,1.6008,1.602,1.6057,1.6056,1.6061,1.6062,1.6097,1.6097,1.6097,1.6078,1.6076,1.6074,0,0,0,0,0,0,1.5865,1.5898,1.5907,1.5918,1.5936,1.5964,1.5967,1.598,1.5996,1.5997,1.602,1.6026,1.6039,1.6052,1.6051,1.6071,1.6079,1.6079,1.6062,1.6061,1.6059,1.6056,1.6068,0,0,0,0,0,1.5861,1.5873,1.5901,1.5908,1.5917,1.5941,1.5949,1.5963,1.5982,1.599,1.6008,1.6026,1.6043,1.6052,1.6068,1.6079,1.6087,1.6083,1.6082,1.608,1.6081,1.609,1.6089,1.6097,1.6097,1.6097,0,0,1.5851,1.5871,1.5877,1.5904,1.5919,1.5932,1.5946,1.5959,1.597,1.5992,1.6007,1.6022,1.6044,1.6058,1.6064,1.6069,1.6081,1.608,1.6079,1.608,1.609,1.6089,1.6088,1.6096,1.6096,1.6096,0,0,1.5842,1.5857,1.5865,1.5881,1.5904,1.592,1.5923,1.5949,1.596,1.5976,1.5994,1.6007,1.6033,1.6049,1.606,1.6059,1.6071,1.6064,1.6056,1.6065,1.6064,1.6064,1.6065,1.6065,1.6064,1.6064,1.6064,0,1.5827,1.5847,1.5868,1.5881,1.5893,1.5914,1.5924,1.5938,1.5965,1.5973,1.5978,1.6013,1.6029,1.6048,1.6048,1.6056,1.606,1.6061,1.6062,1.6062,1.6062,1.6064,1.6064,1.6063,1.6063,1.6063,1.6063,0,1.5829,1.5843,1.5847,1.5874,1.5887,1.5897,1.5921,1.5931,1.5945,1.5961,1.5978,1.5999,1.602,1.6026,1.6038,1.6047,1.6049,1.6058,1.6066,1.606,1.6062,1.6062,1.6061,1.6062,1.6062,1.6062,0,0,1.5802,1.5842,1.5843,1.5857,1.5885,1.5897,1.591,1.5931,1.594,1.5959,1.5971,1.5994,1.6003,1.6016,1.6031,1.6038,1.6039,1.6046,1.6047,1.6045,1.6052,1.6046,1.6046,1.6047,1.6047,1.6047,1.605,0,1.5797,1.5821,1.5842,1.5858,1.5873,1.5894,1.5906,1.5925,1.5941,1.5957,1.5974,1.5991,1.6001,1.6009,1.6017,1.6037,1.604,1.6037,1.606,1.606,1.6054,1.6046,1.6039,1.6041,1.6051,1.6051,1.6051,0,1.5794,1.5813,1.5831,1.586,1.5867,1.5877,1.59,1.5913,1.5937,1.5948,1.5964,1.598,1.5996,1.6003,1.6026,1.6023,1.6034,1.6045,1.6046,1.6049,1.6055,1.605,1.6042,1.6042,1.6052,1.6052,1.6052,0,1.5774,1.5804,1.5819,1.583,1.5864,1.5871,1.5885,1.5909,1.5921,1.5941,1.595,1.5972,1.5983,1.6,1.6022,1.6025,1.6044,1.6052,1.6055,1.6055,1.6058,1.6057,1.6052,1.6064,1.6064,1.6064,1.6064,0,1.5767,1.5777,1.5811,1.5821,1.5834,1.5858,1.5871,1.5888,1.5909,1.5923,1.5943,1.5956,1.5984,1.6,1.6018,1.6036,1.604,1.6051,1.6056,1.6049,1.6048,1.6057,1.6058,1.6064,1.6064,1.6064,1.6064,0,1.5746,1.5769,1.5788,1.5819,1.5828,1.5836,1.5864,1.5874,1.5892,1.591,1.5916,1.5944,1.5965,1.5989,1.6017,1.6029,1.6046,1.6052,1.6038,1.6041,1.6043,1.6043,1.6043,1.6045,1.6055,1.6055,1.6055,0,1.574,1.5749,1.5782,1.5793,1.5807,1.5824,1.5838,1.5863,1.5876,1.5905,1.5912,1.5935,1.5954,1.5987,1.601,1.6033,1.6041,1.6039,1.6044,1.6038,1.6042,1.6041,1.6043,1.6038,1.6038,1.6037,1.6037,0,1.5727,1.5739,1.5757,1.578,1.5795,1.5815,1.5835,1.5843,1.5872,1.5886,1.5908,1.5923,1.5953,1.5976,1.6002,1.6018,1.6033,1.6036,1.6038,1.6032,1.6024,1.603,1.6035,1.6036,1.6036,1.6036,1.6036,1.6036,1.5714,1.5724,1.575,1.577,1.5788,1.5807,1.5819,1.584,1.5858,1.5885,1.5899,1.5921,1.5947,1.5983,1.5999,1.6018,1.6022,1.6025,1.6026,1.6026,1.6025,1.6021,1.6022,1.6022,1.6022,1.6022,1.6023,0,1.5704,1.5721,1.574,1.5768,1.5785,1.5798,1.5821,1.5835,1.5854,1.5876,1.5896,1.5922,1.5945,1.5971,1.5996,1.6006,1.6014,1.6012,1.6012,1.6015,1.6019,1.6015,1.6005,1.6005,1.6005,1.6005,1.6005,1.6005,1.57,1.5718,1.5733,1.5761,1.5779,1.5801,1.5813,1.5832,1.585,1.5879,1.5898,1.5915,1.594,1.5967,1.5989,1.5997,1.6005,1.6002,1.6011,1.6013,1.6015,1.6016,1.6013,1.6003,1.6003,1.6006,1.6006,1.6006]}]]